DW1437 Weather Reports


time (UTC)temp
C
wind
direction
speed
KPH
gust
KPH
rain 1hr
cm
rain 24hr
cm
rain mn
cm
humidity
%
barometer
mb
20260504003204 11 21 0.0 0.0 0.00 0.74 0.00 94 1011.8
20260504000942 11 19 0.0 0.0 0.00 0.74 0.00 94 1011.7
20260503235922 11 46 0.0 0.0 0.00 0.74 0.00 94 1011.7
20260503234850 11 45 0.0 0.0 0.00 0.74 0.00 94 1011.7
20260503233905 11 45 0.0 0.0 0.00 0.74 0.00 94 1011.7
20260503232911 11 45 0.0 0.0 0.00 0.74 0.00 94 1011.6
20260503231926 11 45 0.0 0.0 0.00 0.74 0.00 94 1011.4
20260503230934 11 135 0.0 1.6 0.00 0.74 0.00 94 1011.4
20260503225952 11 135 0.0 0.0 0.00 0.74 0.74 94 1011.3
20260503224948 11 135 0.0 0.0 0.00 0.74 0.74 94 1011.4
20260503222858 11 135 0.0 0.0 0.00 0.74 0.74 93 1011.3
20260503221916 11 135 0.0 0.0 0.00 0.74 0.74 93 1011.3
20260503220852 11 135 0.0 0.0 0.00 0.74 0.74 93 1011.2
20260503215842 11 135 0.0 0.0 0.00 0.74 0.74 93 1011.1
20260503213730 11 135 0.0 0.0 0.00 0.74 0.74 93 1011.0
20260503212747 11 135 0.0 0.0 0.00 0.74 0.74 93 1011.0
20260503211809 11 135 0.0 0.0 0.00 0.74 0.71 92 1010.9
20260503205646 11 135 0.0 0.0 0.20 0.74 0.71 92 1010.8
20260503204645 12 135 0.0 0.0 0.23 0.74 0.69 92 1010.8
20260503202544 12 135 0.0 0.0 0.36 0.64 0.56 91 1010.6
20260503195220 12 135 0.0 0.0 1.30 0.36 0.20 90 1010.2
20260503191913 12 49 0.0 0.0 0.00 0.43 0.08 88 1009.7
20260503190900 12 54 0.0 0.0 0.08 0.46 0.08 88 1009.7
20260503185919 13 42 0.0 4.8 0.20 0.53 0.08 87 1009.7
20260503183732 13 281 0.0 0.0 0.00 0.89 0.05 85 1009.5
20260503182754 13 300 0.0 0.0 0.00 0.89 0.05 84 1009.3
20260503181728 13 300 0.0 0.0 0.13 0.91 0.05 83 1009.2
20260503180709 14 300 0.0 6.4 0.64 0.89 0.03 82 1009.2
20260503175721 14 304 0.0 0.0 0.00 0.86 0.00 81 1009.2
20260503173555 15 309 0.0 0.0 0.00 0.89 0.00 77 1009.0
20260503172541 15 321 0.0 6.4 0.00 0.91 0.00 77 1008.9
20260503170411 16 254 0.0 0.0 0.00 0.97 0.00 75 1008.8
20260503160204 17 250 0.0 3.2 0.00 1.27 0.00 72 1008.6
20260503130759 16 281 0.0 0.0 0.00 1.27 0.00 71 1009.1
20260503110726 15 286 3.2 9.7 0.00 1.27 0.00 78 1009.2
20260503072551 11 282 0.0 0.0 0.00 1.27 0.00 97 1009.3
20260503071521 10 282 0.0 0.0 0.00 1.27 0.00 96 1009.3
20260503070456 10 282 0.0 0.0 0.00 1.27 0.00 96 1009.3
20260503060129 9 282 0.0 0.0 0.00 1.27 0.00 96 1009.3
20260503055111 9 282 0.0 0.0 0.00 1.27 0.00 96 1009.2
20260503054105 9 282 0.0 0.0 0.00 1.27 0.00 96 1009.0
20260503052005 9 282 0.0 0.0 0.00 1.27 0.00 96 1008.9
20260503045811 9 282 0.0 0.0 0.00 1.27 0.00 96 1008.9
20260503044813 9 282 0.0 0.0 0.00 1.27 0.00 95 1008.9
20260503043836 10 282 0.0 0.0 0.00 1.27 0.00 96 1008.9
20260503042850 10 282 0.0 0.0 0.00 1.27 0.00 96 1008.9
20260503040817 10 282 0.0 0.0 0.00 1.27 0.00 96 1008.9
20260503033512 10 282 0.0 0.0 0.00 1.27 0.00 96 1008.9
20260503032518 10 282 0.0 0.0 0.00 1.27 0.00 96 1009.0
20260503031513 10 282 0.0 0.0 0.00 1.27 0.00 96 1009.1
20260503030450 10 282 0.0 0.0 0.00 1.27 0.00 96 1009.0
20260503025432 10 282 0.0 0.0 0.00 1.27 0.00 96 1009.0
20260503024404 10 282 0.0 0.0 0.00 1.27 0.00 96 1009.0
20260503023401 10 282 0.0 0.0 0.00 1.27 0.00 96 1009.0
20260503022332 10 282 0.0 0.0 0.00 1.27 0.00 96 1009.0
20260503021303 10 282 0.0 0.0 0.00 1.30 0.00 95 1009.1
20260503020256 10 282 0.0 0.0 0.00 1.30 0.00 95 1009.2
20260503015231 10 282 0.0 0.0 0.00 1.30 0.00 96 1009.4
20260503014240 10 282 0.0 0.0 0.00 1.30 0.00 96 1009.4
20260503013216 10 282 0.0 0.0 0.00 1.30 0.00 95 1009.3
20260503012227 10 282 0.0 0.0 0.00 1.30 0.00 95 1009.4
20260503011223 10 282 0.0 0.0 0.00 1.30 0.00 95 1009.4
20260503005118 10 282 0.0 0.0 0.00 1.30 0.00 95 1009.7
20260503004106 10 282 0.0 0.0 0.00 1.30 0.00 95 1009.6